Palma de Mallorca, Spain

8:21 AM CET on December 12, 2017 (GMT +0100)
Palma De Mallorca

Weather History for LEPA - February, 2012

Change the Weather History Date:

Wednesday, February 29, 2012

  Actual Average Record
Temperature  
Mean Temperature 48 °F -  
Max Temperature 62 °F 62 °F 62 °F (2008)
Min Temperature 34 °F 41 °F 33 °F (2004)
Degree Days  
Heating Degree Days 17    
Moisture  
Dew Point 43 °F    
Average Humidity 81    
Maximum Humidity 100    
Minimum Humidity 52    
Precipitation  
Precipitation 0.00 in 0.05 in - ()
Sea Level Pressure  
Sea Level Pressure 30.22 in    
Wind  
Wind Speed 3 mph ()    
Max Wind Speed 16 mph    
Max Gust Speed -    
Visibility 6.1 miles    
Events      
Averages and records for this station are not official NWS values.
T = Trace of Precipitation, MM = Missing Value Source: Averaged Metar Reports

Daily Weather History Graph

Daily Weather History Graph

Search for Another Location

Airport or City:

Trip Planner

Search our weather history database for the weather conditions in past years. The results will help you decide how hot, cold, wet, or windy it might be!

Date:

Astronomy

Feb. 29, 2012 Rise Set
Actual Time 7:23 AM CET 6:40 PM CET
Civil Twilight 6:56 AM CET 7:07 PM CET
Nautical Twilight 6:24 AM CET 7:38 PM CET
Astronomical Twilight 5:53 AM CET 8:09 PM CET
Moon 11:04 AM CET (2/29) 1:11 AM CET (2/29)
Length of Visible Light 12h 11m
Length of Day
11h 17m
Waxing Crescent, 44% of the Moon is Illuminated
Feb 29
Waxing Crescent
Mar 1
First Quarter
Mar 8
Full
Mar 15
Last Quarter
Mar 22
New

Hourly Weather History & Observations

Time (CET) Temp. Windchill Dew Point Humidity Pressure Visibility Wind Dir Wind Speed Gust Speed Precip Events Conditions
12:00 AM 41.0 °F - 39.2 °F 93% 30.24 in 6.2 mi Calm Calm - N/A   Partly Cloudy
12:30 AM 41.0 °F - 39.2 °F 93% 30.24 in 6.2 mi NNE 2.3 mph - N/A   Partly Cloudy
1:00 AM 42 °F - 40 °F 92% 30.26 in 12 mi East 1.2 mph - -   Scattered Clouds
1:00 AM 41.0 °F - 41.0 °F 100% 30.24 in 6.2 mi ENE 1.2 mph - N/A   Partly Cloudy
1:30 AM 41.0 °F - 39.2 °F 93% 30.24 in 6.2 mi East 1.2 mph - N/A   Partly Cloudy
2:00 AM 41.0 °F - 39.2 °F 93% 30.24 in 5.6 mi NNE 2.3 mph - N/A   Partly Cloudy
2:30 AM 39.2 °F - 37.4 °F 93% 30.24 in 5.6 mi NNE 1.2 mph - N/A   Partly Cloudy
3:00 AM 39.2 °F - 39.2 °F 100% 30.24 in 5.6 mi Calm Calm - N/A   Partly Cloudy
3:30 AM 37.4 °F - 37.4 °F 100% 30.24 in 5.0 mi NE 1.2 mph - N/A   Partly Cloudy
4:00 AM 37.4 °F - 35.6 °F 93% 30.24 in 5.0 mi Calm Calm - N/A   Partly Cloudy
4:30 AM 37.4 °F - 37.4 °F 100% 30.24 in 5.0 mi Calm Calm - N/A   Partly Cloudy
5:00 AM 37.4 °F - 35.6 °F 93% 30.24 in 4.3 mi Calm Calm - N/A   Partly Cloudy
5:30 AM 37.4 °F - 35.6 °F 93% 30.24 in 4.3 mi Calm Calm - N/A   Partly Cloudy
6:00 AM 35.6 °F - 33.8 °F 93% 30.21 in 4.3 mi NNE 1.2 mph - N/A   Partly Cloudy
6:30 AM 35.6 °F - 35.6 °F 100% 30.21 in 4.3 mi Calm Calm - N/A   Partly Cloudy
7:00 AM 35 °F - 35 °F 97% 30.24 in 4 mi ENE 1.2 mph - -   Mist
7:00 AM 35.6 °F - 33.8 °F 93% 30.21 in 3.7 mi NE 2.3 mph - N/A   Partly Cloudy
7:30 AM 35.6 °F - 35.6 °F 100% 30.24 in 2.8 mi Calm Calm - N/A   Partly Cloudy
8:00 AM 37.4 °F - 37.4 °F 100% 30.24 in 2.8 mi Calm Calm - N/A   Partly Cloudy
8:30 AM 41.0 °F - 41.0 °F 100% 30.24 in 2.5 mi Calm Calm - N/A   Mist
9:00 AM 42.8 °F - 42.8 °F 100% 30.24 in 2.8 mi Calm Calm - N/A   Partly Cloudy
9:30 AM 48.2 °F - 46.4 °F 93% 30.24 in 3.1 mi Calm Calm - N/A   Partly Cloudy
10:00 AM 51.8 °F - 48.2 °F 88% 30.24 in - Calm Calm - N/A   Clear
10:30 AM 55.4 °F - 48.2 °F 77% 30.24 in - Calm Calm - N/A   Clear
11:00 AM 57.2 °F - 46.4 °F 67% 30.24 in - South 1.2 mph - N/A   Clear
11:30 AM 57.2 °F - 46.4 °F 67% 30.24 in - Variable 2.3 mph - N/A   Clear
12:00 PM 59.0 °F - 50.0 °F 72% 30.24 in - SW 5.8 mph - N/A   Clear
12:30 PM 59.0 °F - 50.0 °F 72% 30.24 in - SSW 8.1 mph - N/A   Clear
1:00 PM 59 °F - 52 °F 70% 30.24 in 19 mi SSW 11.5 mph - -   Scattered Clouds
1:00 PM 59.0 °F - 51.8 °F 77% 30.21 in - SSW 10.4 mph - N/A   Clear
1:30 PM 60.8 °F - 48.2 °F 63% 30.21 in - SSW 11.5 mph - N/A   Clear
2:00 PM 60.8 °F - 46.4 °F 59% 30.21 in - SSW 12.7 mph - N/A   Clear
2:30 PM 62.6 °F - 44.6 °F 52% 30.18 in 6.2 mi SW 12.7 mph - N/A   Partly Cloudy
3:00 PM 60.8 °F - 44.6 °F 55% 30.18 in 6.2 mi SW 16.1 mph - N/A   Partly Cloudy
3:30 PM 60.8 °F - 44.6 °F 55% 30.18 in 6.2 mi SW 16.1 mph - N/A   Partly Cloudy
4:00 PM 60.8 °F - 46.4 °F 59% 30.18 in 6.2 mi SW 15.0 mph - N/A   Partly Cloudy
4:30 PM 60.8 °F - 46.4 °F 59% 30.18 in 6.2 mi SW 15.0 mph - N/A   Partly Cloudy
5:00 PM 60.8 °F - 46.4 °F 59% 30.18 in 6.2 mi SW 13.8 mph - N/A   Partly Cloudy
5:30 PM 60.8 °F - 48.2 °F 63% 30.18 in 6.2 mi SW 12.7 mph - N/A   Partly Cloudy
6:00 PM 59.0 °F - 44.6 °F 59% 30.15 in - SW 11.5 mph - N/A   Clear
6:30 PM 57.2 °F - 46.4 °F 67% 30.18 in - WSW 9.2 mph - N/A   Clear
7:00 PM 56 °F - 48 °F 67% 30.20 in 19 mi WSW 8.1 mph - -   Clear
7:00 PM 55.4 °F - 48.2 °F 77% 30.18 in - WSW 8.1 mph - N/A   Clear
7:30 PM 55.4 °F - 48.2 °F 77% 30.18 in - SW 3.5 mph - N/A   Clear
8:00 PM 55.4 °F - 41.0 °F 58% 30.18 in - SSW 1.2 mph - N/A   Clear
8:30 PM 50.0 °F - 41.0 °F 71% 30.18 in - Calm Calm - N/A   Clear
9:00 PM 48.2 °F - 41.0 °F 76% 30.18 in - Variable 1.2 mph - N/A   Clear
9:30 PM 50.0 °F - 42.8 °F 76% 30.21 in - Variable 1.2 mph - N/A   Clear
10:00 PM 46.4 °F - 41.0 °F 81% 30.21 in - Calm Calm - N/A   Clear
10:30 PM 46.4 °F - 42.8 °F 87% 30.21 in - Calm Calm - N/A   Clear
11:00 PM 44.6 °F 43.1 °F 41.0 °F 87% 30.21 in - ENE 3.5 mph - N/A   Clear
11:30 PM 42.8 °F - 41.0 °F 93% 30.21 in - Calm Calm - N/A   Clear